Location: Newark
(50.9000°N, 14.8333°E)
Time: 18:20:42
(UTC+00:00)

N. Korean satellite - Pass Details

Date: 29 October 2020
Orbit: 453 x 503 km, 97.2° (Epoch: 04 December)

Event Time Altitude Azimuth Distance (km) Brightness Sun altitude
Rises 04:29:36 0° 15° (NNE) 2,487 10.3 -12.8°
Reaches altitude 10° 04:31:40 10° 20° (NNE) 1,604 9.4 -12.5°
Maximum altitude 04:35:04 61° 101° (E) 524 7.0 -12.0°
Drops below altitude 10° 04:38:26 10° 182° (S) 1,588 9.2 -11.4°
Sets 04:40:29 0° 186° (S) 2,459 10.2 -11.1°
